Location: Auckland
(36.8670°S, 174.7670°E)
Time: 05:31:28
(UTC+12:00)

Hubble Space Telescope - Pass Details

Date: 05 July 2019
Orbit: 536 x 540 km, 28.5° (Epoch: 18 July)

Event Time Altitude Azimuth Distance (km) Brightness Sun altitude
Exits shadow 05:14:16 21° 16° (NNE) 1,243 2.8 -27.3°
Drops below altitude 10° 05:17:08 10° 60° (ENE) 1,795 4.3 -26.7°
Sets 05:19:48 0° 76° (ENE) 2,687 5.7 -26.2°
